Location: OLV Amersfoort
(52.1552°N, 5.3872°E)
Time: 05:05:30
(UTC+01:00)

ISS - Visible Passes

Search period start: 19 December 2014 00:00
Search period end: 29 December 2014 00:00
Orbit: 404 x 415 km, 51.6° (Epoch: 18 December)

Date Brightness Start Highest point End Pass type
(mag) Time Alt. Az. Time Alt. Az. Time Alt. Az.
19 Dec -3.3 17:45:41 10° W 17:49:00 83° S 17:51:19 18° E visible
19 Dec -1.3 19:22:16 10° W 19:24:05 29° W 19:24:05 29° W visible
20 Dec -3.2 18:31:32 10° W 18:34:49 72° SSW 18:35:27 52° SE visible
21 Dec -3.3 17:40:44 10° W 17:44:02 81° S 17:46:51 14° E visible
21 Dec -1.5 19:17:22 10° W 19:19:36 31° WSW 19:19:36 31° WSW visible
22 Dec -2.6 18:26:28 10° W 18:29:40 50° SSW 18:31:03 28° SE visible
22 Dec 0.3 20:03:46 10° WSW 20:03:49 10° WSW 20:03:49 10° WSW visible
23 Dec -2.9 17:35:33 10° W 17:38:49 65° SSW 17:42:05 10° ESE visible
23 Dec -1.2 19:12:24 10° W 19:15:01 22° SSW 19:15:20 22° SSW visible
24 Dec -1.6 18:21:15 10° W 18:24:13 31° SSW 18:26:59 11° SE visible
25 Dec -2.1 17:30:09 10° W 17:33:18 43° SSW 17:36:26 10° SE visible
25 Dec -0.2 19:07:54 10° WSW 19:09:14 12° SW 19:10:34 10° SSW visible
26 Dec -0.5 18:16:04 10° W 18:18:24 18° SW 18:20:44 10° S visible
27 Dec -0.9 17:24:39 10° W 17:27:28 26° SSW 17:30:16 10° SSE visible
